World > North America > United States > Oregon

Hourly West Union, OR Regional Weather

Feedback E-mail the Weather

Quick WX

West Union, OR Weather Maps

°F °C°F °C
West Union Weather Map
UTC Time: 6/29/2022, 18:42
Your Time:

West Union, OR Regional Weather

Expires:202206291900;;396459
ASUS46 KPQR 291810
RWROR 

OREGON REGIONAL WEATHER ROUNDUP
NATIONAL WEATHER SERVICE PORTLAND OR
1100 AM PDT WED JUN 29 2022

NOTE: "FAIR" INDICATES FEW OR NO CLOUDS BELOW 12,000 FEET WITH
NO SIGNIFICANT WEATHER AND/OR OBSTRUCTIONS TO VISIBILITY.


ORZ001>013-291900-
NORTHWEST OREGON

  
CITY           SKY/WX    TMP DP  RH WIND       PRES   REMARKS
ASTORIA        CLOUDY    58  52  80 W8        30.20S                  
6HR MIN TEMP:  54; 6HR MAX TEMP:  60;                                

TILLAMOOK      CLOUDY    61  52  72 W5        30.22F                  
NEWPORT        CLOUDY    55  54  94 N5        30.24S                  
FLORENCE       CLOUDY    59  54  82 NW7       30.20S                  
PORTLAND       PTSUNNY   66  52  60 NE6       30.18F                  
6HR MIN TEMP:  61; 6HR MAX TEMP:  66;                                

VANCOUVER WA   CLOUDY    63  51  65 VRB3      30.19S                  
6HR MIN TEMP:  60; 6HR MAX TEMP:  65;                                

SCAPPOOSE      CLOUDY    65  51  60 VRB3      30.18S                  
6HR MIN TEMP:  55; 6HR MAX TEMP:  66;                                

HILLSBORO      CLOUDY    64  49  57 CALM      30.19S                  
6HR MIN TEMP:  53; 6HR MAX TEMP:  63;                                

AURORA         CLOUDY    61  51  70 CALM      30.20S                  
6HR MIN TEMP:  56; 6HR MAX TEMP:  62;                                

MCMINNVILLE    CLOUDY    63  51  65 VRB5      30.19S                  
6HR MIN TEMP:  53; 6HR MAX TEMP:  63;                                

SALEM          CLOUDY    64  52  64 NW3       30.18F                  
6HR MIN TEMP:  57; 6HR MAX TEMP:  64;                                

CORVALLIS      CLOUDY    61  51  70 VRB3      30.20F                  
EUGENE         CLOUDY    60  54  80 N6        30.20S                  
6HR MIN TEMP:  55; 6HR MAX TEMP:  60;                                

CRESWELL       CLOUDY    59  55  88 N3        30.18S                  
$$


SKY/WX - Weather  TMP - Temperature  DP - Dew Point  RH - Humidity
WIND - Wind Direction/Speed PRES - Barometric Pressure VSB - Visibility
WCI - Wind Chill Index E13G22 Wind - East Wind 13 mph/Gusts of 22 mph

Trending Headlines

West Union Radar Loop



West Union Quick Facts


National Two Day Weather Forecast


E-mail the West Union Weather Forecast

Voice your opinion or tell us about page issues...